COSMOS 712

Satellite information

Favourite Embed

Satellite Type and Status

PAYLOADIN ORBIT

Key statistics

Satellite COSMOS 712 at a glance.

Uptime

18496

Days in orbit

Revolutions

≈ 12.5

Per day

Orbit

LEO

Low Earth Orbit

Inclination

74.0

Latest

Satellite identification and parameters

Extended collection of information and parameters for COSMOS 712.

Object identification

Identified? True

Debris? False

Object name: COSMOS 712

International designator: 1975-016B

Object number (NORAD): 7679

Object ID (CCSDS): 7679

Country: COMMONWEALTH OF INDEPENDENT STATES (CIS)

Current information (Y/N): Y

RCS size: MEDIUM

Orbital parameters

Period: 114.882 minutes

Inclination: 74.0013 deg

SMA: 7828.189 km

Apoapsis: 1489.823 km

Periapsis: 1410.286 km

RAAN: 85.4792 deg

Eccentricy: 0.00508019

Argument of periapsis: 278.4533 deg

Mean anomaly: 186.2365 deg

Mean motion: 12.53460894 rev/day

Mean motion (dot): -0.0000001 rev/day2

B* drag term: 0.000042065584 1/REarth

Two-line elements (TLE)

Creation date: Oct. 19, 2025, 2:20 a.m.

Reference frame: TEME

Reference center: EARTH

Epoch: Oct. 18, 2025, 10:51 p.m. UTC

TLE line 0: 0 COSMOS 712

TLE line 1: 1 07679U 75016B 25291.95231295 -.00000010 00000-0 42066-4 0 9997

TLE line 2: 2 07679 74.0013 85.4792 0050802 278.4533 186.2365 12.53460894317024

Live tracking on map

Real-time ground track for satellite COSMOS 712.

In-orbit conjunctions

A list of the most updated potential collisions computed for object COSMOS 712.

Target Orbit TCA Probability of collision Miss distance Type
COSMOS 1854 LEO 2025-09-29 22:43:27 0.001013658 54.0 (m) PAYLOAD

Associated space launch

Military communications satellites

COSMOS 712 was lifted into orbit during the mission ‘Kosmos-3M | Strela-1M 81-88’, on board a Kosmos-3M space rocket.

The launch took place on Feb. 28, 1975, 2:01 p.m. from 132/2.

For more information about the launch, click the button.

Launch to space Kosmos-3M | Strela-1M 81-88
Kosmos-3M | Strela-1M 81-88

Agency: N/A

Status: Launch Successful

Launch date: Feb. 28, 1975, 2:01 p.m. UTC

Rocket: Kosmos-3M

Launch pad: 132/2

Location: Plesetsk Cosmodrome, Russian Federation

...

Latest news about this satellite

There are no fresh news available about this satellite. Check back as we update our databases every day.


Newsletter sign-up

Weekly statistics, charts and insights to help you stay on top of the space industry.